Weather History for South Bend, IN

Change the Weather History Date:

Friday, November 29, 2013

  Actual Average Record
Temperature  
Mean Temperature 31 °F 35 °F  
Max Temperature 36 °F 41 °F 74 °F (1905)
Min Temperature 26 °F 28 °F 4 °F (1929)
Degree Days  
Heating Degree Days 34 30  
Month to date heating degree days 762 697  
Since 1 July heating degree days 1261 1238  
Cooling Degree Days 0 0  
Month to date cooling degree days 0 0  
Year to date cooling degree days 828 773  
Moisture  
Dew Point 19 °F    
Average Humidity 61    
Maximum Humidity 75    
Minimum Humidity 47    
Precipitation  
Precipitation 0.00 in 0.10 in 1.54 in (1919)
Month to date precipitation 2.63 3.16  
Year to date precipitation 38.02 35.28  
Snow  
Snow 0.00 in 0.30 in 5.90 in (1942)
Month to date snowfall 8.9 4.5  
Since 1 July snowfall 4.9  
Since 1 September snowfall 4.9  
Snow Depth 3.00 in    
Sea Level Pressure  
Sea Level Pressure 30.58 in    
Wind  
Wind Speed 5 mph (SSE)    
Max Wind Speed 13 mph    
Max Gust Speed 17 mph    
Visibility 10 miles    
Events      
T = Trace of Precipitation, MM = Missing Value Source: NWS Daily Summary

Daily Weather History Graph

Daily Weather History Graph

Search for Another Location

Airport:

Trip Planner

Search our weather history database for the weather conditions in past years. The results will help you decide how hot, cold, wet, or windy it might be!

Date:

Astronomy

Nov. 29, 2013 Rise Set
Actual Time 7:50 AM EST 5:16 PM EST
Civil Twilight 7:20 AM EST 5:47 PM EST
Nautical Twilight 6:45 AM EST 6:21 PM EST
Astronomical Twilight 6:12 AM EST 6:54 PM EST
Moon 3:53 AM EST (11/29) 3:02 PM EST (11/29)
Length of Visible Light 10h 26m
Length of Day
9h 25m
Waning Crescent, 14% of the Moon is Illuminated
Nov 29
Waning Crescent
Dec 2
New
Dec 9
First Quarter
Dec 17
Full
Dec 25
Last Quarter

Hourly Weather History & Observations

Time (EST) Temp. Windchill Dew Point Humidity Pressure Visibility Wind Dir Wind Speed Gust Speed Precip Events Conditions
12:54 AM 28.9 °F 19.2 °F 19.9 °F 69% 30.48 in 10.0 mi NW 11.5 mph - N/A   Overcast
1:54 AM 28.0 °F 21.7 °F 18.0 °F 66% 30.50 in 10.0 mi WNW 5.8 mph - N/A   Overcast
2:54 AM 27.0 °F 21.6 °F 19.0 °F 72% 30.52 in 10.0 mi WSW 4.6 mph - N/A   Overcast
3:54 AM 27.0 °F 23.0 °F 19.0 °F 72% 30.54 in 10.0 mi West 3.5 mph - N/A   Overcast
4:54 AM 27.0 °F - 19.0 °F 72% 30.54 in 10.0 mi Calm Calm - N/A   Overcast
5:54 AM 26.1 °F 20.5 °F 19.0 °F 75% 30.56 in 10.0 mi SW 4.6 mph - N/A   Overcast
6:54 AM 27.0 °F 23.0 °F 19.0 °F 72% 30.61 in 10.0 mi SW 3.5 mph - N/A   Overcast
7:54 AM 27.0 °F - 19.0 °F 72% 30.63 in 10.0 mi Calm Calm - N/A   Overcast
8:54 AM 27.0 °F - 19.0 °F 72% 30.64 in 10.0 mi Calm Calm - N/A   Overcast
9:54 AM 28.0 °F - 18.0 °F 66% 30.66 in 10.0 mi Calm Calm - N/A   Mostly Cloudy
10:54 AM 33.1 °F - 19.9 °F 59% 30.66 in 10.0 mi Calm Calm - N/A   Clear
11:54 AM 33.1 °F 30.0 °F 17.1 °F 52% 30.64 in 10.0 mi SSE 3.5 mph - N/A   Clear
12:54 PM 35.1 °F - 18.0 °F 50% 30.63 in 10.0 mi Calm Calm - N/A   Clear
1:54 PM 33.1 °F 26.9 °F 18.0 °F 54% 30.62 in 10.0 mi SE 6.9 mph - N/A   Clear
2:54 PM 33.1 °F 27.7 °F 17.1 °F 52% 30.60 in 10.0 mi SE 5.8 mph - N/A   Clear
3:54 PM 32.0 °F 24.2 °F 18.0 °F 56% 30.59 in 10.0 mi SE 9.2 mph - N/A   Clear
4:54 PM 32.0 °F 28.7 °F 19.0 °F 59% 30.59 in 10.0 mi SSE 3.5 mph - N/A   Clear
5:54 PM 30.9 °F 27.5 °F 19.0 °F 61% 30.59 in 10.0 mi East 3.5 mph - N/A   Clear
6:54 PM 28.9 °F 22.8 °F 19.0 °F 67% 30.58 in 10.0 mi ESE 5.8 mph - N/A   Clear
7:54 PM 30.0 °F 22.4 °F 19.9 °F 66% 30.56 in 10.0 mi SSE 8.1 mph - N/A   Clear
8:54 PM 30.0 °F 21.7 °F 19.0 °F 64% 30.54 in 10.0 mi SE 9.2 mph - N/A   Clear
9:54 PM 30.0 °F 22.4 °F 19.9 °F 66% 30.53 in 10.0 mi SSE 8.1 mph - N/A   Clear
10:54 PM 30.9 °F 22.8 °F 21.0 °F 67% 30.52 in 10.0 mi SE 9.2 mph - N/A   Clear
11:54 PM 30.9 °F 22.2 °F 21.0 °F 67% 30.50 in 10.0 mi SE 10.4 mph - N/A   Clear